STARLINK-5049, 57246

Orbit data source: Space-Track

STARLINK-5049, 57246 is a payload satellite owned by SpaceX/Seattle (US) in LEO that was launched on Fri, 07 Jul 2023 UTC via an FALCON 9 launch vehicle from the Air Force Western Test Range (AFWTR). Payload-class satellites include a variety of spacecraft equipped with specific instruments for various scientific and technological missions. These include communications satellites like Starlink; space stations such as the ISS; scientific satellites like the Hubble; Earth observation satellites from companies like Planet Labs, Umbra, and HawkEye 360; GPS; miniature CubeSats for education and research; and military/defense satellites.

Loading next visibility...
Identifier
57246, 2023-094AE
Orbit
LEO
Country
Flag of USUS
Related business
Manufacturer
SpaceX/Seattle
Mission
Operational Commercial Communications
Bus & Motor
STARLINK, Unknown motor
Mass
305 kg wet, ~290 kg dry
Launch date (UTC)
2023-07-07 (3 years ago)
Launch vehicle
FALCON 9
Launch site
Air Force Western Test Range (AFWTR)
Object type
Payload
Rocket body
Debris
Shape & HBR
Box + 1 Pan, 10.1 m
Radar Cross Section
11.087 m², Large (>1 m²)

Expand to show TLE details & history
Last TLE update: 9 hours ago

TLE from 9 hours ago
0 STARLINK-5049
1 57246U 23094AE  26167.73931303  .00000229  00000-0  17860-4 0  9992
2 57246  43.0016 180.0544 0001075 273.4665  86.6063 15.27575984162391
Epoch: 2026-06-16T17:44Z
TLE epoch observation values (Epoch: 2026-06-16T17:44:36.645Z)
Latitude
-0.00008°
Longitude
8.8946°
Altitude
482.793 km
Speed
7.626 km/s
True Right ascension
12h 00m 13s
True Declination
0° 00' 00"
Sunlit
Object was in daylight at epoch
Visualization orbit readout
Latitude
Unknown
Longitude
Unknown
Altitude
Unknown
Speed
Unknown
Apparent Right ascension
Unknown
Apparent Declination
Unknown
Sunlit
N/A
Visualization observer readout
Local Sidereal Time
13:19:33
Azimuth
Unknown
Elevation
Unknown
Doppler factor
Unknown
Orbital elements
Apogee altitude
485.744 km
Perigee altitude
484.268 km
Semi-major axis
6,863.143 km
Eccentricity
0.00011
Inclination
43.0016°
RAAN
180.0544°
Arg. of periapsis
273.4665°
True anomaly
86.6186°
Mean anomaly
86.6063°
Eccentric anomaly
86.61245°
Mean motion
3.81732 °/min
Orbital period
94.31 mins
BSTAR
0.00001786
Loading maneuver chart data...
Computing Atmospheric mass density...
Loading historical data...
Loading historical data...
Loading historical data...
Loading historical data...
Loading historical data...
Loading historical data...
Loading historical data...

Documentation

Showing up to 5 results
|